DUCHIFAT-1

Last updated on Thu Nov 21 2024 00:03:02 GMT+0000 (Coordinated Universal Time)

1 40021U 14033M 24325.45995917 .00023385 00000+0 12217-2 0 9998 2 40021 98.1009 318.3117 0008538 299.9054 60.1329 15.15875065567723
UTC large
Height (km)
Speed (km/s)
/
Latitude / Longitude
Inclination (degrees)
Orbital Period (minutes)
Azimuth
Elevation
Range (km)
Doppler Factor

Next 0 passes for location: London (51.5072 / 0.1276)

Sorry there are no passes over London.